| time (UTC) | temp C | wind direction | speed KPH | gust KPH | rain 1hr cm | rain 24hr cm | rain mn cm | humidity % | barometer mb |
| 20260503185017 | 22 | 181 | 6.4 | 12.9 | 0.00 | 0.00 | 0.00 | 54 | |
| 20260503184017 | 21 | 185 | 8.0 | 16.1 | 0.00 | 0.00 | 0.00 | 54 | |
| 20260503183016 | 21 | 193 | 6.4 | 11.3 | 0.00 | 0.00 | 0.00 | 54 | |
| 20260503182017 | 22 | 205 | 4.8 | 11.3 | 0.00 | 0.00 | 0.00 | 54 | |
| 20260503181016 | 22 | 190 | 4.8 | 12.9 | 0.00 | 0.00 | 0.00 | 54 | |
| 20260503180017 | 22 | 206 | 4.8 | 8.0 | 0.00 | 0.00 | 0.00 | 55 | |
| 20260503175018 | 22 | 197 | 4.8 | 12.9 | 0.00 | 0.00 | 0.00 | 55 | |
| 20260503174037 | 21 | 193 | 4.8 | 8.0 | 0.00 | 0.00 | 0.00 | 57 | |
| 20260503173017 | 20 | 177 | 8.0 | 16.1 | 0.00 | 0.00 | 0.00 | 57 | |
| 20260503172017 | 19 | 185 | 4.8 | 11.3 | 0.00 | 0.00 | 0.00 | 57 | |
| 20260503171016 | 20 | 192 | 4.8 | 9.7 | 0.00 | 0.00 | 0.00 | 58 | |
| 20260503131017 | 6 | 183 | 4.8 | 9.7 | 0.00 | 0.00 | 0.00 | 70 | |
| 20260503081017 | 2 | 177 | 1.6 | 1.6 | 0.00 | 0.00 | 0.00 | 67 | |
| 20260503072017 | 2 | 179 | 1.6 | 1.6 | 0.00 | 0.00 | 0.00 | 66 | |
| 20260503071016 | 2 | 178 | 0.0 | 1.6 | 0.00 | 0.00 | 0.00 | 66 | |
| 20260503055016 | 2 | 179 | 1.6 | 1.6 | 0.00 | 0.00 | 0.00 | 65 | |
| 20260503054017 | 2 | 179 | 0.0 | 1.6 | 0.00 | 0.00 | 0.00 | 64 | |
| 20260503053017 | 2 | 0.0 | 0.0 | 0.00 | 0.00 | 0.00 | 64 | ||
| 20260503052017 | 3 | 0.0 | 0.0 | 0.00 | 0.00 | 0.00 | 64 | ||
| 20260503051017 | 3 | 0.0 | 0.0 | 0.00 | 0.00 | 0.00 | 64 | ||
| 20260503050016 | 3 | 179 | 0.0 | 1.6 | 0.00 | 0.00 | 0.00 | 64 | |
| 20260503045117 | 3 | 171 | 1.6 | 1.6 | 0.00 | 0.00 | 0.00 | 64 | |
| 20260503044016 | 3 | 145 | 0.0 | 1.6 | 0.00 | 0.00 | 0.00 | 64 | |
| 20260503043016 | 3 | 167 | 0.0 | 1.6 | 0.00 | 0.00 | 0.00 | 64 | |
| 20260503042017 | 3 | 170 | 1.6 | 3.2 | 0.00 | 0.00 | 0.00 | 64 | |
| 20260503041017 | 3 | 170 | 1.6 | 1.6 | 0.00 | 0.00 | 0.00 | 63 | |
| 20260503040017 | 3 | 0.0 | 0.0 | 0.00 | 0.00 | 0.00 | 63 | ||
| 20260503035017 | 3 | 134 | 0.0 | 0.0 | 0.00 | 0.00 | 0.00 | 63 | |
| 20260503034016 | 3 | 134 | 0.0 | 1.6 | 0.00 | 0.00 | 0.00 | 63 | |
| 20260503033018 | 3 | 0.0 | 0.0 | 0.00 | 0.00 | 0.00 | 62 | ||
| 20260503032016 | 3 | 134 | 0.0 | 0.0 | 0.00 | 0.00 | 0.00 | 62 | |
| 20260503031016 | 4 | 0.0 | 0.0 | 0.00 | 0.00 | 0.00 | 62 | ||
| 20260503030017 | 4 | 0.0 | 0.0 | 0.00 | 0.00 | 0.00 | 62 | ||
| 20260503025016 | 4 | 134 | 0.0 | 0.0 | 0.00 | 0.00 | 0.00 | 62 | |
| 20260503024017 | 4 | 134 | 0.0 | 0.0 | 0.00 | 0.00 | 0.00 | 62 | |
| 20260503023017 | 5 | 134 | 0.0 | 0.0 | 0.00 | 0.00 | 0.00 | 61 | |
| 20260503022016 | 5 | 0.0 | 0.0 | 0.00 | 0.00 | 0.00 | 61 | ||
| 20260503021017 | 5 | 0.0 | 0.0 | 0.00 | 0.00 | 0.00 | 61 | ||
| 20260503020017 | 5 | 0.0 | 0.0 | 0.00 | 0.00 | 0.00 | 61 | ||
| 20260503015017 | 6 | 134 | 0.0 | 0.0 | 0.00 | 0.00 | 0.00 | 60 | |
| 20260503014017 | 6 | 134 | 0.0 | 0.0 | 0.00 | 0.00 | 0.00 | 60 | |
| 20260503013017 | 6 | 0.0 | 0.0 | 0.00 | 0.00 | 0.00 | 60 | ||
| 20260503012017 | 7 | 0.0 | 0.0 | 0.00 | 0.00 | 0.00 | 59 | ||
| 20260503011017 | 7 | 0.0 | 0.0 | 0.00 | 0.00 | 0.00 | 59 | ||
| 20260503010037 | 8 | 55 | 1.6 | 1.6 | 0.00 | 0.00 | 0.00 | 59 | |
| 20260503005017 | 8 | 30 | 1.6 | 3.2 | 0.00 | 0.00 | 0.00 | 58 | |
| 20260503004017 | 9 | 33 | 1.6 | 3.2 | 0.00 | 0.00 | 0.00 | 58 | |
| 20260503003016 | 10 | 355 | 1.6 | 4.8 | 0.00 | 0.00 | 0.00 | 58 | |
| 20260503002017 | 11 | 350 | 3.2 | 6.4 | 0.00 | 0.00 | 0.00 | 57 | |
| 20260503001056 | 11 | 303 | 3.2 | 6.4 | 0.00 | 0.00 | 0.00 | 57 | |
| 20260503000037 | 12 | 330 | 3.2 | 6.4 | 0.00 | 0.00 | 0.00 | 56 | |
| 20260502235017 | 12 | 342 | 4.8 | 11.3 | 0.00 | 0.00 | 0.00 | 56 | |
| 20260502234016 | 13 | 329 | 4.8 | 8.0 | 0.00 | 0.00 | 0.00 | 55 | |
| 20260502233017 | 14 | 335 | 3.2 | 8.0 | 0.00 | 0.00 | 0.00 | 55 | |
| 20260502232017 | 14 | 353 | 3.2 | 8.0 | 0.00 | 0.00 | 0.00 | 57 | |
| 20260502231016 | 13 | 331 | 3.2 | 8.0 | 0.00 | 0.00 | 0.00 | 56 | |
| 20260502230017 | 13 | 311 | 4.8 | 11.3 | 0.00 | 0.00 | 0.00 | 55 | |
| 20260502225016 | 13 | 315 | 4.8 | 9.7 | 0.00 | 0.00 | 0.00 | 54 | |
| 20260502224017 | 14 | 325 | 4.8 | 8.0 | 0.00 | 0.00 | 0.00 | 54 | |
| 20260502223017 | 15 | 337 | 4.8 | 11.3 | 0.00 | 0.00 | 0.00 | 54 | |
| 20260502222016 | 14 | 290 | 6.4 | 9.7 | 0.00 | 0.00 | 0.00 | 56 | |
| 20260502221037 | 14 | 328 | 3.2 | 8.0 | 0.00 | 0.00 | 0.00 | 55 | |
| 20260502220037 | 15 | 356 | 4.8 | 11.3 | 0.00 | 0.00 | 0.00 | 55 | |
| 20260502215017 | 15 | 289 | 6.4 | 11.3 | 0.00 | 0.00 | 0.00 | 55 | |
| 20260502214017 | 15 | 352 | 3.2 | 8.0 | 0.00 | 0.00 | 0.00 | 54 | |
| 20260502213016 | 15 | 291 | 4.8 | 11.3 | 0.00 | 0.00 | 0.00 | 54 | |
| 20260502212017 | 16 | 298 | 6.4 | 11.3 | 0.00 | 0.00 | 0.00 | 53 | |
| 20260502211017 | 17 | 324 | 6.4 | 11.3 | 0.00 | 0.00 | 0.00 | 54 | |
| 20260502210017 | 17 | 346 | 3.2 | 6.4 | 0.00 | 0.00 | 0.00 | 54 | |
| 20260502205017 | 18 | 297 | 6.4 | 12.9 | 0.00 | 0.00 | 0.00 | 53 | |
| 20260502204016 | 18 | 283 | 4.8 | 8.0 | 0.00 | 0.00 | 0.00 | 56 | |
| 20260502203017 | 16 | 327 | 4.8 | 9.7 | 0.00 | 0.00 | 0.00 | 55 | |
| 20260502202017 | 16 | 323 | 4.8 | 8.0 | 0.00 | 0.00 | 0.00 | 55 | |
| 20260502201036 | 17 | 302 | 4.8 | 12.9 | 0.00 | 0.00 | 0.00 | 54 | |
| 20260502200017 | 17 | 296 | 3.2 | 9.7 | 0.00 | 0.00 | 0.00 | 53 | |
| 20260502195016 | 19 | 329 | 4.8 | 12.9 | 0.00 | 0.00 | 0.00 | 53 | |
| 20260502194037 | 20 | 315 | 4.8 | 14.5 | 0.00 | 0.00 | 0.00 | 53 | |
| 20260502193017 | 20 | 287 | 6.4 | 16.1 | 0.00 | 0.00 | 0.00 | 54 | |
| 20260502192016 | 19 | 294 | 6.4 | 11.3 | 0.00 | 0.00 | 0.00 | 55 | |
| 20260502191017 | 19 | 316 | 4.8 | 11.3 | 0.00 | 0.00 | 0.00 | 53 | |
| 20260502190017 | 20 | 285 | 4.8 | 9.7 | 0.00 | 0.00 | 0.00 | 54 |